User: anonymous   Login
Location: Unspecified
(0.0000°N, 0.0000°E)
Time: 14:52:22
(UTC+00:00)
Language:

Uribyol 2 - Orbit

View from above orbital plane
View from above orbital plane
View from above satellite
View from above satellite

Ground track
Ground track

The orbit data is extracted from the following two-line orbital elements,

1 22828U 93061F   17351.87954240  .00000029  00000-0  28599-4 0  9995
2 22828  98.8237 318.6762 0010827 111.0139 249.2202 14.30658896232208
Epoch (UTC): 17 December 2017 21:06:32
Eccentricity: 0.0010827
inclination: 98.8237°
perigee height: 782 km
apogee height: 797 km
right ascension of ascending node: 318.6762°
argument of perigee: 111.0139°
revolutions per day: 14.30658896
mean anomaly at epoch: 249.2202°
orbit number at epoch: 23220

The dashed part of the orbit path shows where the satellite is in the earth's shadow,  

DLR